Regional Weather Roundup
Issued by NWS State College, PA

Home | Current Version | Previous Version | Graphics & Text | Print | Product List | Glossary On
Versions: 1 2 3 4 5 6 7 8 9 10 11 12 13 14 15 16 17 18 19 20 21 22 23 24 25 26 27 28 29 30 31 32 33 34 35 36 37 38 39 40 41 42 43 44 45 46 47 48 49 50
818
ASUS41 KCTP 191703
RWRCTP

REGIONAL WEATHER ROUNDUP
NATIONAL WEATHER SERVICE STATE COLLEGE PA
1200 PM EST THU JAN 19 2017

Note: "fair" indicates few or no clouds below 12,000 feet with no
significant weather and/or obstructions to visibility.

* = STATION THAT DOES NOT REPORT PRECIPITATION /E.G. RAIN...SNOW...ETC/
    THUNDER OR FOG.

PAZ002>004-007>009-013>016-020>023-029>032-191800-
WESTERN PENNSYLVANIA

CITY           SKY/WX    TMP DP  RH WIND       PRES   REMARKS
ERIE           CLOUDY    37  34  89 W7        30.08F
MEADVILLE      CLOUDY    36  32  85 S5        30.05F
FRANKLIN*        N/A     36  30  80 SW6       30.07F
NEW CASTLE     CLOUDY    39  35  86 VRB5      30.08F
BEAVER COUNTY  CLOUDY    39  34  81 SW5       30.06F
BUTLER*        CLOUDY    37  32  81 CALM      30.10F
PITTSBURGH INT CLOUDY    38  34  85 CALM      30.06F
PITTSBURGH     CLOUDY    39  33  79 CALM      30.06F
INDIANA*       CLOUDY    39  36  87 W6        30.09F
LATROBE        CLOUDY    39  36  87 W6        30.10F
WASHINGTON CO* CLOUDY    39  36  87 S3        30.07F
$$

PAZ004>006-010>012-017>019-024>028-033>037-041-042-045-046-049>053-191800-
CENTRAL PENNSYLVANIA

CITY           SKY/WX    TMP DP  RH WIND       PRES   REMARKS
BRADFORD       CLOUDY    33  33 100 CALM      30.02F
DUBOIS         CLOUDY    35  31  85 W7        30.03F
CLEARFIELD     CLOUDY    38  34  85 SW6       30.05F
JOHNSTOWN      CLOUDY    35  34  96 SW7       30.02F
ALTOONA        CLOUDY    41  34  76 W7        30.05F
STATE COLLEGE  CLOUDY    39  34  81 W7        30.07F
WILLIAMSPORT   CLOUDY    44  33  65 W6        30.06F
SELINSGROVE    CLOUDY    44  34  67 NW3       30.07F
FT INDIANTOWN  CLOUDY    45  35  66 N3        30.05F
CAPITAL CITY   CLOUDY    47  32  56 N7        30.06F
HARRISBURG     CLOUDY    46  35  65 W7        30.06F
YORK           PTSUNNY   47  36  65 W7        30.06F
$$

PAZ038>040-043-044-047-048-054-055-060>062-067>071-191800-
EASTERN PENNSYLVANIA

CITY           SKY/WX    TMP DP  RH WIND       PRES   REMARKS
SCRANTON       CLOUDY    40  34  79 N13       30.03F
MOUNT POCONO   CLOUDY    34  31  88 NW12G18   29.98F
ALLENTOWN      CLOUDY    43  34  70 NW7       30.04F
QUAKERTOWN*    CLOUDY    41  36  81 NW3       30.05F
READING        CLOUDY    46  33  60 N5        30.04F
LANCASTER      CLOUDY    46  36  68 VRB5      30.05F
COATESVILLE    CLOUDY    43  36  75 N7        30.06F
POTTSTOWN      CLOUDY    43  35  73 NW7       30.06F
BLUE BELL      CLOUDY    43  34  70 NW5       30.04F
DOYLESTOWN     CLOUDY    45  36  70 VRB6      30.04F
WILLOW GROVE   NOT AVBL
NORTH PHILA    CLOUDY    48  36  63 N9        30.06F
PHILADELPHIA   PTSUNNY   48  35  60 NW10      30.05F
$$




USA.gov is the U.S. government's official web portal to all federal, state and local government web resources and services.